DateTimeUTC,F1_A11,F1_S11,BsB_S11,BsG_S11,BsR_S11,BbsB_S11,BbsG_S11,BbsR_S11,BaB_A11,BaG_A11,BaR_A11,Tu_S11,T_S11,Uu_S11,U_S11,P_S11,T1_A11
2021-05-13T09:00:00Z,00000200,21000000,,,,,,,0000.23,-000.31,0000.21,16.2,23.3,,00.0,0673.0,30.9
2021-05-13T09:01:00Z,00000200,21000000,,,,,,,-000.31,0000.15,0000.27,16.2,23.4,,00.0,0673.0,30.9
2021-05-13T09:02:00Z,00000200,21000000,,,,,,,0000.57,-000.01,-000.29,16.2,23.4,,00.0,0673.0,30.9
2021-05-13T09:03:00Z,00000200,61000000,,,,,,,0000.24,0000.63,0000.54,16.2,23.4,,00.0,0673.0,30.9
2021-05-13T09:04:00Z,00000200,41000000,0000.47,0000.21,0000.12,0000.23,0000.12,-000.19,0000.19,-000.17,0000.17,16.3,23.1,00.1,00.1,0673.9,30.9
2021-05-13T09:05:00Z,00000200,01000000,0001.03,0000.03,0000.18,0000.22,0000.01,0000.38,-000.14,-000.30,-000.24,16.4,23.1,00.1,00.1,0674.0,30.9
2021-05-13T09:06:00Z,00000200,01000000,0000.96,0000.42,0000.18,-000.02,-000.14,0000.05,-000.03,0000.18,0000.10,16.3,23.0,00.1,00.1,0674.0,30.9
2021-05-13T09:07:00Z,00000200,01000000,-000.20,0000.44,-000.11,0000.38,0000.15,-000.04,0001.04,0000.82,0000.68,16.3,23.0,00.1,00.1,0674.0,30.8
2021-05-13T09:08:00Z,00000200,01000000,0000.80,0000.33,0000.43,-000.07,-000.03,0000.23,0000.35,0000.25,0000.39,16.3,23.0,00.1,00.1,0674.1,30.8
2021-05-13T09:09:00Z,00000200,01000000,0000.45,0000.46,0000.50,0000.28,0000.08,-000.05,0001.04,0001.02,0000.46,16.3,23.0,00.2,00.1,0674.1,30.8
2021-05-13T09:10:00Z,00000200,01000000,0000.94,0000.40,0000.49,-000.09,0000.05,0000.03,0000.55,0000.34,0000.49,16.3,22.9,00.2,00.2,0674.1,30.9
2021-05-13T09:11:00Z,00000200,01000000,0000.95,0000.23,0000.15,0000.15,0000.17,-000.20,-000.29,-000.12,-000.17,16.3,22.9,00.2,00.1,0674.1,30.9
2021-05-13T09:12:00Z,00000200,01000000,-000.01,0000.61,0000.03,0000.18,-000.06,0000.01,0000.06,0000.37,0000.28,16.3,23.0,00.2,00.1,0674.1,30.9
2021-05-13T09:13:00Z,00000200,01000000,0000.57,0000.54,0000.54,0000.64,0000.12,0000.29,0000.54,0000.29,-000.41,16.4,23.0,00.1,00.1,0674.1,30.9
2021-05-13T09:14:00Z,00000200,01000000,-000.10,0000.48,-000.07,0000.12,0000.05,-000.15,0000.63,0000.47,0000.87,16.4,23.1,00.3,00.2,0674.1,30.9
2021-05-13T09:15:00Z,00000200,01000000,0000.78,0000.19,0000.13,0000.37,0000.14,0000.01,0001.07,0001.10,0000.66,16.5,23.1,00.4,00.2,0674.2,30.9
2021-05-13T09:16:00Z,00000200,01000000,-000.00,0000.45,0000.22,0000.26,0000.06,-000.16,-000.17,-000.53,-000.31,16.5,23.0,00.3,00.2,0674.2,30.9
2021-05-13T09:17:00Z,00000200,01000000,0000.24,0000.09,0000.27,0000.48,0000.31,0000.13,-000.37,0000.41,0000.05,16.4,23.0,00.3,00.2,0674.2,30.9
2021-05-13T09:18:00Z,00000200,01000000,0000.44,0000.34,0000.16,0000.20,-000.03,0000.01,0000.60,0000.24,0000.45,16.4,23.0,00.2,00.2,0674.2,30.9
2021-05-13T09:19:00Z,00000200,01000000,0000.47,0000.23,0000.38,-000.20,0000.19,0000.03,0000.40,0000.27,0000.10,16.4,23.0,00.3,00.2,0674.2,30.9
2021-05-13T09:20:00Z,00000200,01000000,0000.95,0000.57,0000.26,0000.26,0000.15,0000.19,0000.44,0000.34,0000.46,16.4,22.9,00.2,00.1,0674.2,30.8
2021-05-13T09:21:00Z,00000200,01000000,0000.81,0000.10,0000.23,0000.62,-000.04,-000.04,0000.48,0000.62,0000.34,16.3,22.9,00.3,00.2,0674.2,30.8
2021-05-13T09:22:00Z,00000200,01000000,0000.56,0000.27,0000.16,0000.40,-000.15,0000.19,0000.84,0000.19,0000.44,16.3,22.9,00.6,00.4,0674.2,30.8
2021-05-13T09:23:00Z,00000200,01000000,0000.61,-000.09,0000.46,0000.66,0000.13,0000.07,0000.63,0000.85,0000.67,16.3,22.9,00.6,00.4,0674.2,30.8
2021-05-13T09:24:00Z,00000200,01000000,0000.23,0000.27,0000.33,0000.09,0000.03,0000.15,0000.47,0000.63,0000.47,16.3,22.9,00.8,00.5,0674.2,30.8
2021-05-13T09:25:00Z,00000200,01000000,0000.41,0000.21,0000.12,0000.33,0000.13,-000.02,0000.73,0000.31,0000.25,16.3,22.9,00.8,00.5,0674.2,30.8
2021-05-13T09:26:00Z,00000200,01000000,-000.02,0000.10,0000.22,-000.31,0000.08,0000.37,0000.53,0000.57,0000.53,16.3,22.9,01.0,00.6,0674.0,30.9
2021-05-13T09:27:00Z,00000200,01000000,0000.47,0000.44,0000.41,0000.22,0000.03,0000.20,0000.93,0001.26,0000.91,16.4,23.0,01.1,00.7,0674.0,30.9
2021-05-13T09:28:00Z,00000200,01000000,0000.78,0000.47,-000.02,0000.22,-000.08,-000.02,0000.47,-000.11,0000.32,16.5,23.0,01.3,00.8,0674.0,30.9
2021-05-13T09:29:00Z,00000200,01000000,0000.43,0000.33,0000.35,0000.58,0000.01,-000.18,-000.15,0000.53,-000.00,16.5,23.0,01.2,00.8,0674.0,30.9
2021-05-13T09:30:00Z,00000200,01000000,-000.20,0000.30,0000.27,0000.42,0000.09,0000.02,0000.02,-000.03,-000.35,16.5,23.0,01.2,00.8,0674.0,30.9
2021-05-13T09:31:00Z,00000200,01000000,0000.17,0000.14,0000.12,0000.44,0000.08,-000.10,0000.31,-000.03,0000.47,16.5,23.0,01.1,00.7,0674.0,30.9
2021-05-13T09:32:00Z,00000200,01000000,0000.65,0000.20,0000.47,0000.05,0000.03,0000.23,-000.04,-000.02,-000.12,16.5,23.0,01.0,00.7,0674.0,30.9
2021-05-13T09:33:00Z,00000200,01000000,0000.70,0000.83,0000.05,-000.24,0000.18,-000.22,-000.05,-000.10,-000.35,16.5,23.0,00.9,00.6,0674.0,30.9
2021-05-13T09:34:00Z,00000200,01000000,0000.18,0000.35,-000.02,0000.47,-000.07,-000.06,-000.33,-000.36,0000.11,16.4,22.9,00.8,00.5,0674.0,30.8
2021-05-13T09:35:00Z,00000200,01000000,0000.07,0000.29,0000.35,0000.17,-000.01,-000.04,-000.37,-000.53,-000.33,16.4,22.9,00.5,00.3,0674.0,30.8
2021-05-13T09:36:00Z,00000200,01000000,0001.10,0000.42,-000.03,0000.25,-000.02,0000.10,-000.52,-000.40,-000.24,16.4,22.9,00.4,00.2,0674.0,30.8
2021-05-13T09:37:00Z,00000200,01000000,0000.23,0000.05,0000.14,0000.26,0000.05,-000.08,-000.04,0000.37,0000.04,16.4,22.9,00.4,00.2,0674.0,30.8
2021-05-13T09:38:00Z,00000200,01000000,0000.56,0000.28,0000.27,0000.30,0000.04,0000.06,-000.19,0000.06,-000.06,16.3,22.9,00.4,00.3,0674.0,30.8
2021-05-13T09:39:00Z,00000200,01000000,0000.86,0000.42,0000.17,-000.21,-000.07,-000.06,-000.13,-000.12,-000.17,16.3,22.8,00.3,00.2,0674.0,30.8
2021-05-13T09:40:00Z,00000200,01000000,0000.82,0000.32,0000.25,0000.46,0000.08,0000.16,0000.24,-000.43,-000.03,16.3,22.8,00.2,00.1,0674.0,30.8
2021-05-13T09:41:00Z,00000200,01000000,0000.60,0000.08,0000.24,0000.14,0000.11,0000.10,0000.15,0000.30,0000.12,16.3,22.8,00.3,00.2,0674.0,30.9
2021-05-13T09:42:00Z,00000200,01000000,0000.22,0000.22,0000.09,0000.36,0000.21,0000.10,-000.01,-000.09,0000.38,16.4,22.9,00.3,00.2,0674.1,30.9
2021-05-13T09:43:00Z,00000200,01000000,0000.18,0000.17,0000.13,-000.15,0000.08,-000.26,0000.37,0000.34,-000.20,16.4,22.9,00.2,00.1,0674.1,30.9
2021-05-13T09:44:00Z,00000200,01000000,0000.48,0000.03,-000.02,0000.40,-000.25,0000.09,0000.26,0000.52,0000.08,16.5,23.0,00.3,00.2,0674.0,30.9
2021-05-13T09:45:00Z,00000200,01000000,-000.03,0000.29,0000.36,0000.67,-000.05,-000.06,0000.15,0000.16,0000.32,16.5,23.0,00.3,00.2,0674.0,30.9
2021-05-13T09:46:00Z,00000200,01000000,0000.74,0000.53,0000.11,-000.48,0000.17,-000.24,0000.29,0000.16,0000.34,16.5,23.0,00.4,00.3,0674.1,30.9
2021-05-13T09:47:00Z,00000200,01000000,0000.31,0000.43,-000.02,0000.15,-000.01,0000.11,0000.29,0000.13,0000.40,16.5,22.9,00.3,00.2,0674.1,30.9
2021-05-13T09:48:00Z,00000200,01000000,0000.13,0000.26,0000.13,0000.15,0000.09,0000.07,0000.36,0000.74,0000.13,16.4,22.9,00.4,00.2,0674.1,30.8
2021-05-13T09:49:00Z,00000200,01000000,0000.60,-000.05,-000.01,0000.32,0000.05,0000.03,0000.36,0000.16,-000.09,16.4,22.9,00.4,00.2,0674.0,30.8
2021-05-13T09:50:00Z,00000200,01000000,0000.98,0000.23,0000.29,0000.08,0000.01,-000.31,0000.29,0000.03,0000.37,16.4,22.9,00.4,00.3,0674.0,30.8
2021-05-13T09:51:00Z,00000200,01000000,0000.49,0000.42,0000.44,0000.06,-000.04,0000.01,-000.06,0000.25,0000.13,16.4,22.8,00.4,00.3,0674.0,30.8
2021-05-13T09:52:00Z,00000200,01000000,0000.29,0000.35,0000.09,0000.26,-000.21,-000.04,0000.70,0000.31,0000.24,16.3,22.8,00.5,00.3,0674.1,30.8
2021-05-13T09:53:00Z,00000200,01000000,0000.40,0000.33,0000.06,-000.07,-000.21,-000.10,-000.13,-000.06,-000.11,16.3,22.8,00.5,00.3,0674.1,30.8
2021-05-13T09:54:00Z,00000200,01000000,0000.02,0000.33,0000.13,0000.42,0000.12,-000.02,0000.21,0000.19,-000.15,16.3,22.8,00.4,00.3,0674.1,30.8
2021-05-13T09:55:00Z,00000200,01000000,-000.48,0000.32,0000.31,0000.34,0000.10,-000.05,-000.31,-000.10,0000.14,16.3,22.8,00.3,00.2,0674.1,30.8
2021-05-13T09:56:00Z,00000200,01000000,0000.25,0000.39,0000.13,0000.20,0000.23,-000.04,0000.18,0000.05,0000.10,16.3,22.8,00.4,00.3,0674.1,30.8
2021-05-13T09:57:00Z,00000200,41000000,,,,,,,-000.45,-000.25,-000.36,16.4,22.8,00.6,00.4,0674.1,30.9
2021-05-13T09:58:00Z,00000200,61000000,,,,,,,0000.44,-000.04,0000.16,16.1,23.1,00.1,00.1,0673.1,30.9
2021-05-13T09:59:00Z,00000200,21000000,,,,,,,-000.67,0000.11,0000.29,16.1,23.2,,00.0,0673.1,30.9
